Regional Weather Roundup
Issued by NWS

Home | Current Version | Previous Version | Text Only | Print | Product List | Glossary On
Versions: 1 2 3 4 5 6 7 8 9 10 11 12 13 14 15 16 17 18 19 20 21 22 23 24 25 26 27
000
ASCA42 TJSJ 290410
RWRPR
PUERTO RICO/U.S. VIRGIN ISLANDS HOURLY WEATHER ROUNDUP
NATIONAL WEATHER SERVICE SAN JUAN PR
1200 AM AST SAT APR 29 2017

PRZ001>002-007>008-010-290500-
PUERTO RICO

CITY           SKY/WX    TMP DP  RH WIND       PRES   REMARKS
SAN JUAN LMM   PTCLDY    79  75  89 E15       30.08F
PONCE          PTCLDY    79  73  83 E6        30.10S
AGUADILLA      CLEAR     75  72  88 E13       30.08
CEIBA          CLOUDY    79  75  89 E8        30.09F
$$

VIZ001>002-290500-
U.S. VIRGIN ISLANDS

CITY           SKY/WX    TMP DP  RH WIND       PRES   REMARKS
CHARLOTTE AMA  MOCLDY    77  73  88 E13       30.07F
CHRISTIANSTED  LGT RAIN  79  75  89 E12       30.07S
$$

HOURLY WEATHER ROUNDUP FOR THE NEWS MEDIA

CITY           SKY/WX    TMP DP  RH WIND       PRES   REMARKS
ORLANDO        CLEAR     76  71  85 SE7       30.13R
NEW YORK       MOCLDY    61  55  81 SW3       30.05S
NEWARK         CLOUDY    71  47  42 SW7       30.04R
CHICAGO        CLOUDY    48  39  71 N13G21    29.99R
HARTFORD       CLEAR     59  55  87 SW6       30.02S
BOSTON         PTCLDY    69  58  67 SW9       30.00S
DALLAS         MOCLDY    81  72  74 SE20      29.62R
PHILADELPHIA   MOCLDY    69  58  67 S3        30.06R
LOS ANGELES    PTCLDY    74  25  16 N13G21    29.79R
WASHINGTON DC  CLOUDY    71  62  73 SE5       30.00F



USA.gov is the U.S. government's official web portal to all federal, state and local government web resources and services.